When you browse on this site, cookies collect data to enhance your experience and personalize the content and advertising you see.
Visit our Privacy Policy to learn more. By continuing to use the site, you agree to this use of cookies and data.
  • In Czech Republic
  • List of Countries
  • For 7 days
  • Water Temperature
  • Weather Map
  • Weather Widgets
  • user-avatar
    Login

    Hourly Weather Annaba

    Today, 7 December, Saturday

    Time Temperature Precipitation Wind Pressure Humidity
    00:00 +15°C° 0 mm 1 mps 765 mmHg 64%
    01:00 +14°C° 0 mm 2 mps 765 mmHg 63%
    02:00 +14°C° 0 mm 2 mps 765 mmHg 63%
    03:00 +14°C° 0 mm 2 mps 764 mmHg 62%
    04:00 +14°C° 0 mm 1 mps 764 mmHg 62%
    05:00 +14°C° 0 mm 1 mps 764 mmHg 61%
    06:00 +14°C° 0 mm 1 mps 764 mmHg 60%
    07:00 +14°C° 0 mm 1 mps 764 mmHg 59%
    08:00 +15°C° 0 mm 1 mps 764 mmHg 56%
    09:00 +16°C° 0 mm 1 mps 765 mmHg 53%
    10:00 +19°C° 0 mm 1 mps 765 mmHg 50%
    11:00 +20°C° 0 mm 1 mps 764 mmHg 48%
    12:00 +21°C° 0 mm 1 mps 764 mmHg 46%
    13:00 +22°C° 0 mm 1 mps 764 mmHg 43%
    14:00 +21°C° 0 mm 1 mps 764 mmHg 47%
    15:00 +20°C° 0 mm 2 mps 763 mmHg 52%
    16:00 +19°C° 0 mm 2 mps 763 mmHg 56%
    17:00 +18°C° 0 mm 2 mps 763 mmHg 61%
    18:00 +16°C° 0 mm 2 mps 763 mmHg 67%
    19:00 +15°C° 0 mm 2 mps 764 mmHg 72%
    20:00 +15°C° 0 mm 2 mps 764 mmHg 74%
    21:00 +15°C° 0 mm 1 mps 764 mmHg 76%
    22:00 +14°C° 0 mm 1 mps 764 mmHg 78%
    23:00 +14°C° 0 mm 1 mps 764 mmHg 79%

    Tomorrow, 8 December, Sunday

    Time Temperature Precipitation Wind Pressure Humidity
    00:00 +14°C° 0 mm 1 mps 764 mmHg 80%
    01:00 +14°C° 0 mm 1 mps 764 mmHg 82%
    02:00 +14°C° 0 mm 1 mps 764 mmHg 82%
    03:00 +13°C° 0 mm 1 mps 764 mmHg 83%
    04:00 +13°C° 0 mm 1 mps 764 mmHg 83%
    05:00 +13°C° 0 mm 1 mps 764 mmHg 84%
    06:00 +13°C° 0 mm 1 mps 764 mmHg 84%
    07:00 +13°C° 0 mm 1 mps 764 mmHg 85%
    08:00 +14°C° 0 mm 1 mps 765 mmHg 81%
    09:00 +15°C° 0 mm 1 mps 765 mmHg 77%
    10:00 +16°C° 0 mm 1 mps 765 mmHg 73%
    11:00 +18°C° 0 mm 1 mps 765 mmHg 70%
    12:00 +19°C° 0 mm 1 mps 765 mmHg 67%
    13:00 +20°C° 0 mm 1 mps 765 mmHg 64%
    14:00 +19°C° 0 mm 1 mps 764 mmHg 66%
    15:00 +18°C° 0 mm 2 mps 764 mmHg 69%
    16:00 +18°C° 0 mm 2 mps 764 mmHg 71%
    17:00 +16°C° 0 mm 2 mps 764 mmHg 76%
    18:00 +15°C° 0 mm 2 mps 764 mmHg 81%
    19:00 +14°C° 0 mm 1 mps 765 mmHg 86%
    20:00 +14°C° 0 mm 2 mps 765 mmHg 86%
    21:00 +14°C° 0 mm 2 mps 765 mmHg 87%
    22:00 +14°C° 0 mm 2 mps 765 mmHg 87%
    23:00 +14°C° 0 mm 2 mps 765 mmHg 88%

    Day after tomorrow, 9 December, Monday

    Time Temperature Precipitation Wind Pressure Humidity
    00:00 +13°C° 0 mm 2 mps 765 mmHg 88%
    01:00 +12°C° 0 mm 3 mps 765 mmHg 89%
    02:00 +12°C° 0 mm 3 mps 764 mmHg 89%
    03:00 +12°C° 0 mm 3 mps 764 mmHg 89%
    04:00 +12°C° 0 mm 4 mps 764 mmHg 90%
    05:00 +12°C° 0.1 mm 4 mps 764 mmHg 89%
    06:00 +12°C° 0.1 mm 4 mps 764 mmHg 88%
    07:00 +12°C° 0.1 mm 5 mps 764 mmHg 87%
    08:00 +13°C° 0.1 mm 5 mps 764 mmHg 83%
    09:00 +14°C° 0.1 mm 6 mps 764 mmHg 78%
    10:00 +15°C° 0.1 mm 6 mps 764 mmHg 74%
    11:00 +15°C° 0.1 mm 7 mps 764 mmHg 72%
    12:00 +16°C° 0.1 mm 8 mps 763 mmHg 71%
    13:00 +17°C° 0.1 mm 9 mps 763 mmHg 69%
    14:00 +16°C° 0.1 mm 9 mps 763 mmHg 69%
    15:00 +16°C° 0.1 mm 9 mps 762 mmHg 69%
    16:00 +16°C° 0.1 mm 10 mps 762 mmHg 69%
    17:00 +16°C° 0.2 mm 10 mps 762 mmHg 68%
    18:00 +14°C° 0.2 mm 10 mps 763 mmHg 67%
    19:00 +14°C° 0.2 mm 10 mps 763 mmHg 67%
    20:00 +13°C° 1.1 mm 9 mps 763 mmHg 70%
    21:00 +13°C° 1.1 mm 8 mps 764 mmHg 73%
    22:00 +14°C° 1.1 mm 7 mps 764 mmHg 77%
    23:00 +12°C° 0.5 mm 7 mps 764 mmHg 78%

    10 December, Tuesday

    Time Temperature Precipitation Wind Pressure Humidity
    00:00 +12°C° 0.5 mm 7 mps 764 mmHg 79%
    01:00 +11°C° 0.5 mm 7 mps 763 mmHg 79%
    02:00 +11°C° 0.4 mm 7 mps 763 mmHg 80%
    03:00 +11°C° 0.4 mm 7 mps 763 mmHg 80%
    04:00 +11°C° 0.4 mm 7 mps 763 mmHg 81%
    05:00 +11°C° 0.4 mm 7 mps 763 mmHg 82%
    06:00 +11°C° 0.4 mm 7 mps 763 mmHg 83%
    07:00 +11°C° 0.4 mm 7 mps 763 mmHg 84%
    08:00 +11°C° 0.6 mm 8 mps 763 mmHg 81%
    09:00 +12°C° 0.6 mm 9 mps 763 mmHg 79%
    10:00 +12°C° 0.6 mm 10 mps 763 mmHg 77%
    11:00 +12°C° 0.7 mm 11 mps 763 mmHg 74%
    12:00 +13°C° 0.7 mm 12 mps 762 mmHg 72%
    13:00 +13°C° 0.7 mm 13 mps 762 mmHg 69%
    14:00 +12°C° 0.2 mm 13 mps 762 mmHg 67%
    15:00 +12°C° 0.2 mm 12 mps 762 mmHg 65%
    16:00 +12°C° 0.2 mm 12 mps 762 mmHg 64%
    17:00 +11°C° 0 mm 11 mps 762 mmHg 65%
    18:00 +11°C° 0 mm 10 mps 762 mmHg 66%
    19:00 +10°C° 0 mm 9 mps 762 mmHg 67%
    20:00 +10°C° 0.1 mm 9 mps 763 mmHg 69%
    21:00 +10°C° 0.1 mm 8 mps 763 mmHg 71%
    22:00 +10°C° 0.1 mm 7 mps 764 mmHg 73%
    23:00 +10°C° 0.1 mm 7 mps 764 mmHg 75%

    11 December, Wednesday

    Time Temperature Precipitation Wind Pressure Humidity
    00:00 +9°C° 0.1 mm 7 mps 764 mmHg 77%
    01:00 +9°C° 0.1 mm 6 mps 764 mmHg 78%
    02:00 +9°C° 0 mm 6 mps 764 mmHg 79%
    03:00 +9°C° 0 mm 6 mps 764 mmHg 79%
    04:00 +9°C° 0 mm 5 mps 764 mmHg 80%
    05:00 +9°C° 0 mm 5 mps 764 mmHg 80%
    06:00 +9°C° 0 mm 5 mps 764 mmHg 79%
    07:00 +9°C° 0 mm 5 mps 764 mmHg 79%
    08:00 +10°C° 0 mm 5 mps 764 mmHg 76%
    09:00 +12°C° 0 mm 5 mps 765 mmHg 74%
    10:00 +13°C° 0 mm 5 mps 765 mmHg 71%
    11:00 +13°C° 0 mm 5 mps 764 mmHg 68%
    12:00 +14°C° 0 mm 5 mps 764 mmHg 65%
    13:00 +14°C° 0 mm 5 mps 763 mmHg 61%
    14:00 +15°C° 0 mm 4 mps 763 mmHg 61%
    15:00 +15°C° 0 mm 4 mps 763 mmHg 61%
    16:00 +16°C° 0 mm 3 mps 762 mmHg 61%
    17:00 +13°C° 0 mm 3 mps 762 mmHg 65%
    18:00 +13°C° 0 mm 2 mps 762 mmHg 69%
    19:00 +12°C° 0 mm 2 mps 762 mmHg 73%
    20:00 +12°C° 0 mm 2 mps 762 mmHg 72%
    21:00 +12°C° 0 mm 2 mps 762 mmHg 72%
    22:00 +10°C° 0 mm 2 mps 762 mmHg 72%
    23:00 +10°C° 0 mm 2 mps 762 mmHg 68%

    12 December, Thursday

    Time Temperature Precipitation Wind Pressure Humidity
    00:00 +10°C° 0 mm 2 mps 762 mmHg 64%
    01:00 +10°C° 0 mm 3 mps 761 mmHg 60%
    02:00 +10°C° 0 mm 3 mps 761 mmHg 61%
    03:00 +11°C° 0 mm 4 mps 761 mmHg 62%
    04:00 +10°C° 0 mm 5 mps 761 mmHg 63%
    05:00 +10°C° 0.3 mm 6 mps 761 mmHg 70%
    06:00 +11°C° 0.3 mm 7 mps 761 mmHg 77%
    07:00 +11°C° 0.3 mm 8 mps 762 mmHg 84%
    08:00 +12°C° 0.1 mm 8 mps 762 mmHg 79%
    09:00 +12°C° 0.1 mm 8 mps 763 mmHg 73%
    10:00 +13°C° 0.1 mm 8 mps 764 mmHg 68%
    11:00 +14°C° 0 mm 7 mps 763 mmHg 65%
    12:00 +14°C° 0 mm 7 mps 763 mmHg 61%
    13:00 +15°C° 0 mm 6 mps 763 mmHg 58%
    14:00 +15°C° 0 mm 6 mps 763 mmHg 58%
    15:00 +14°C° 0 mm 6 mps 762 mmHg 59%
    16:00 +14°C° 0 mm 6 mps 762 mmHg 59%
    17:00 +13°C° 0.1 mm 6 mps 762 mmHg 65%
    18:00 +11°C° 0.1 mm 6 mps 762 mmHg 70%
    19:00 +11°C° 0.1 mm 6 mps 763 mmHg 75%
    20:00 +11°C° 0.2 mm 6 mps 763 mmHg 75%
    21:00 +11°C° 0.2 mm 6 mps 762 mmHg 76%
    22:00 +11°C° 0.2 mm 6 mps 762 mmHg 76%
    23:00 +11°C° 0.1 mm 6 mps 762 mmHg 78%
    Show more